Regional Weather Roundup
Issued by NWS

Home | Current Version | Previous Version | Text Only | Print | Product List | Glossary On
Versions: 1 2 3 4 5 6 7 8 9 10 11 12 13 14 15 16 17 18 19 20 21 22 23 24 25 26 27 28 29 30 31 32 33 34 35 36 37 38 39 40 41 42 43 44 45 46 47 48 49 50
000
ASUS43 KMPX 041610
RWRMN
WEATHER ROUNDUP FOR MINNESOTA
NATIONAL WEATHER SERVICE TWIN CITIES/CHANHASSEN MN
1100 AM CDT SAT JUL 04 2015


NOTE: "FAIR" INDICATES FEW OR NO CLOUDS BELOW 12,000 FEET WITH NO
SIGNIFICANT WEATHER AND/OR OBSTRUCTIONS TO VISIBILITY. N/A MEANS
CURRENT SKY AND/OR WEATHER CONDITIONS ARE NOT AVAILABLE.

MNZ060>063-068>070-041700-
   Twin Cities Metro

CITY           SKY/WX    TMP DP  RH WIND       PRES   REMARKS
TWIN CITIES    PTSUNNY   77  65  66 E3        29.94F
ST PAUL        MOSUNNY   77  66  68 E3        29.94F
CRYSTAL        SUNNY     80  65  59 S5        29.93S HAZE
BLAINE         SUNNY     79  70  73 CALM      29.94F
LAKEVILLE      SUNNY     75  66  73 CALM      29.95S
EDEN PRAIRIE   SUNNY     76  65  68 S3        29.94S
SOUTH ST PAUL  SUNNY     76  65  67 SE3       29.94F
LAKE ELMO      FAIR      77  68  73 CALM      29.96S
$$
MNZ001>005-007-008-013>017-022>024-027-028-041700-
   Northwest Minnesota

CITY           SKY/WX    TMP DP  RH WIND       PRES   REMARKS
BEMIDJI        SUNNY     74  59  58 S7        29.93S
HALLOCK        SUNNY     75  66  73 S12       29.83S HAZE
ROSEAU         SUNNY     75  64  69 S10       29.87F HAZE
WARROAD        SUNNY     73  64  73 S7        29.88F HAZE
THIEF RVR FALL SUNNY     75  64  69 S12       29.88F
CROOKSTON      SUNNY     75  66  73 S10       29.86F HAZE
FOSSTON        SUNNY     73  63  68 S8        29.91F HAZE
DETROIT LAKES  SUNNY     77  63  61 SW8       29.93S HAZE
MOORHEAD       SUNNY     75  68  78 SE8       29.88F HAZE
PARK RAPIDS    MOSUNNY   76  57  51 SE9       29.93F HAZE
MAHNOMEN       FAIR      75  64  68 S8        29.90F HAZE
$$
MNZ006-009>011-018-025>026-041700-
   North Central Minnesota

CITY           SKY/WX    TMP DP  RH WIND       PRES   REMARKS
BAUDETTE       SUNNY     73  60  63 S8        29.90F
FLAG ISLAND    MOSUNNY   72  63  73 S8        29.87F
INTL FALLS     MOSUNNY   74  58  57 S5        29.93F
WASKISH        SUNNY     75  61  60 SE5       29.92F
BIG FORK       SUNNY     77  61  57 S3        29.95F
LONGVILLE      SUNNY     73  61  64 SE3       29.94F
GRAND RAPIDS   SUNNY     73  57  56 E3        29.96S
CRANE LAKE     SUNNY     70  57  64 S5        29.97F
ORR            SUNNY     73  55  53 CALM      29.93F
COOK           SUNNY     73  57  56 SE3       29.96F
WALKER         FAIR      73  59  59 S5        29.93F
$$
MNZ012-019>021-037-041700-
   Northeast Minnesota

CITY           SKY/WX    TMP DP  RH WIND       PRES   REMARKS
DULUTH         SUNNY     71  60  68 SE8       29.97S
ELY            SUNNY     72  55  56 SW3       29.97F
HIBBING        SUNNY     75  55  49 VRB5      29.96F
DULUTH HARBOR  SUNNY     64  59  82 NE8       29.98S
TWO HARBORS    SUNNY     75  63  64 NE6       29.96S
SILVER BAY     SUNNY     72  57  60 E9        29.97S
GRAND MARAIS     N/A     59  52  77 CALM      29.98S
G MARAIS ARPRT SUNNY     66  54  63 CALM      30.02S
$$
MNZ029>031-032-039>041-046>048-054>057-064-041700-
   West Central Minnesota

CITY           SKY/WX    TMP DP  RH WIND       PRES   REMARKS
FERGUS FALLS   SUNNY     75  66  73 S8        29.90F HAZE
WHEATON        SUNNY     75  66  73 S7        29.92S
MORRIS         SUNNY     79  66  65 SW5       29.92S
ALEXANDRIA     SUNNY     77  65  66 S7        29.95S HAZE
ELBOW LAKE     FAIR      76  68  76 S9        29.92S HAZE
WADENA         SUNNY     75  63  64 SE5       29.93S HAZE
GLENWOOD       SUNNY     77  66  69 S6        29.95S HAZE
APPLETON       SUNNY     81  64  57 SW5       29.92S
BENSON         SUNNY     79  64  61 CALM      29.93S
ORTONVILLE     SUNNY     79  66  65 S5        29.91F
MADISON        SUNNY     79  64  61 SW6       29.92F
WILLMAR        FAIR      77  70  78 CALM      29.95S
$$
MNZ033>034-036-042>043-049>051-058-059-041700-
   Central Minnesota

CITY           SKY/WX    TMP DP  RH WIND       PRES   REMARKS
ST CLOUD       MOSUNNY   75  65  70 SE5       29.94S HAZE
SAUK CENTRE    FAIR      76  66  71 S5        29.95R HAZE
PAYNESVILLE    MOSUNNY   74  65  73 SE7       29.95S
AITKIN         SUNNY     75  61  60 S5        29.94S
PINE RIVER       N/A     75  61  60 S6        29.97F
BRAINERD       SUNNY     76  60  57 SE6       29.94F HAZE
STAPLES        SUNNY     73  61  64 S3        29.94S HAZE
LONG PRAIRIE   PTSUNNY   73  64  73 E3        29.95S HAZE
LITTLE FALLS   SUNNY     73  61  64 S3        29.94S HAZE
LITCHFIELD     SUNNY     79  70  73 SE7       29.95S
BUFFALO        SUNNY     76  65  69 S5        29.95F
MAPLE LAKE     SUNNY     78  70  76 CALM      29.95S
$$
MNZ037-044-045-052-053-041700-
   East Central Minnesota

CITY           SKY/WX    TMP DP  RH WIND       PRES   REMARKS
PRINCETON      SUNNY     79  64  61 CALM      29.94S HAZE
MORA           SUNNY     73  61  64 CALM      29.96S
CAMBRIDGE      SUNNY     79  63  57 CALM      29.93S HAZE
RUSH CITY      SUNNY     76  65  67 CALM      29.95S
MOOSE LAKE     SUNNY     73  59  60 CALM      29.94S
HINCKLEY       FAIR      77  63  61 CALM      29.95S
CLOQUET        SUNNY     72  59  64 SE3       29.97S
MCGREGOR       SUNNY     77  57  50 S3        29.95S
$$
MNZ071>073-080-081-089-090-097-098-041700-
   Southwest Minnesota

CITY           SKY/WX    TMP DP  RH WIND       PRES   REMARKS
MONTEVIDEO     SUNNY     81  72  74 W5        29.94S
GRANITE FALLS  SUNNY     77  66  69 CALM      29.95S
CANBY          SUNNY     77  64  62 SW7       29.94F
MARSHALL       SUNNY     79  63  57 SW10      29.94
REDWOOD FALLS  SUNNY     79  65  62 W5        29.94S
OLIVIA         SUNNY     73  64  73 W7        29.94R
PIPESTONE      SUNNY     73  64  73 SW7       29.97S
WINDOM         SUNNY     77  63  61 S7        29.97S
WORTHINGTON    SUNNY     73  63  68 SW12      29.98S
JACKSON        SUNNY     75  63  64 SW8       29.99R
TRACY          SUNNY     78  65  65 SW8       29.96S
SLAYTON        SUNNY     75  64  68 SW12      29.98S
$$
MNZ065>067-074>077-082>085-091>093-041700-
   South Central Minnesota

CITY           SKY/WX    TMP DP  RH WIND       PRES   REMARKS
MANKATO        SUNNY     75  64  69 W3        29.96S
NEW ULM        SUNNY     75  66  73 W5        29.95S
ST JAMES       SUNNY     79  66  65 CALM      29.96F
FAIRMONT       SUNNY     75  61  60 CALM      29.97S
GLENCOE        PTSUNNY   79  70  73 SE5       29.94S
FARIBAULT      SUNNY     75  66  73 CALM      29.97S
OWATONNA       SUNNY     75  64  69 CALM      29.97S
WASECA         SUNNY     73  64  73 SW3       29.98S
ALBERT LEA     SUNNY     75  64  69 SW5       29.98S
$$
MNZ078>079-086>088-094>096-041700-
   Southeast Minnesota

CITY           SKY/WX    TMP DP  RH WIND       PRES   REMARKS
ROCHESTER      SUNNY     76  64  66 CALM      29.99S
RED WING       SUNNY     77  63  61 CALM      29.94F
STANTON        SUNNY     75  64  69 CALM      29.94F
DODGE CENTER   SUNNY     75  64  69 CALM      29.98S
WINONA         SUNNY     73  61  64 CALM      29.97S
AUSTIN         SUNNY     77  64  65 SW3       29.98S
PRESTON        SUNNY     74  63  69 CALM      29.99F
$$
ABBREVIATIONS USED IN REMARKS
   TC - TEMPERATURES IN CELSIUS
  WCI - WIND CHILL INDEX
   HX - HEAT INDEX
  VSB - VISIBILITY
$$



USA.gov is the U.S. government's official web portal to all federal, state and local government web resources and services.